Wind_Speed
44 44 44 44 45 46 47 48 48 46 45 44 45 45 45 46 45 44 45 46 46 46 45 47 48 51 50 49 48 48 46 44 44 44 43 43 45 46
43 43 43 44 44 45 46 45 45 44 43 42 41 40 40 39 39 39 39 39 38 38 39 43 44 46 46 47 47 47 47 46 44 42 41 41 42 42
42 42 43 43 43 44 43 42 42 41 40 38 37 36 35 34 34 34 32 31 30 31 33 36 38 40 41 42 43 45 46 46 44 43 43 43 42 41
41 42 42 42 41 41 40 40 39 38 37 35 34 32 32 31 30 29 29 27 26 28 28 30 32 35 37 38 40 42 43 43 43 43 44 44 45 46
40 40 40 40 39 38 38 37 37 35 34 33 32 30 29 29 28 27 26 26 26 27 28 29 30 32 34 36 38 40 42 44 44 44 45 46 47 48
38 38 38 37 37 36 36 35 34 33 32 31 30 29 29 28 28 27 27 27 27 28 29 30 30 31 33 36 38 39 41 43 44 45 45 46 48 49
36 36 36 36 35 35 34 33 32 31 31 30 30 30 30 29 29 29 29 29 29 30 30 30 31 33 34 36 37 39 41 42 43 45 46 47 48 50
34 34 34 34 34 33 33 32 32 31 31 31 31 31 31 31 31 30 30 31 31 31 32 32 34 35 36 37 39 40 42 44 45 46 47 48 49 50
33 33 33 33 33 32 32 32 32 32 32 32 32 33 33 33 33 33 33 34 34 34 35 36 37 38 40 41 43 44 45 46 47 49 50 51 52 52
32 32 32 32 32 32 32 32 32 33 33 33 34 34 35 35 35 36 37 37 38 39 39 40 42 43 45 45 46 48 49 50 50 51 52 53 54 54
32 32 32 32 32 33 33 33 33 34 34 35 36 36 37 37 38 39 39 40 41 42 43 44 46 47 49 49 50 51 52 52 53 54 54 54 55 55
32 33 33 33 33 33 34 34 35 36 36 36 37 38 38 39 40 41 42 43 44 45 46 48 49 49 50 51 52 52 53 53 53 53 54 54 54 54
33 33 34 34 34 34 35 35 36 37 37 38 39 39 40 41 42 43 44 46 47 48 49 49 50 50 50 51 52 53 53 52 52 53 52 52 52 52
33 34 34 35 35 35 36 36 37 38 39 39 40 41 42 43 45 46 47 48 49 50 50 50 50 51 51 51 52 53 53 53 52 52 52 51 51 50
34 34 35 35 36 37 37 38 39 39 40 41 42 43 45 46 47 48 49 50 51 52 52 52 51 51 52 52 52 52 53 53 53 52 51 50 49 48
34 35 36 37 38 38 39 39 40 41 42 43 44 45 46 47 49 50 51 52 52 53 53 52 52 51 51 50 50 50 51 51 52 52 50 49 47 47
37 37 38 38 39 39 40 41 42 43 44 45 46 47 48 50 51 52 52 53 53 53 54 54 53 51 50 49 48 48 49 49 50 50 49 47 46 46
38 38 39 40 40 41 41 42 43 45 46 47 48 49 50 52 53 53 53 53 53 53 53 54 53 52 49 48 47 46 46 47 48 48 47 45 43 45
39 40 40 41 41 42 43 44 45 46 47 48 50 51 52 53 54 54 54 54 53 52 52 53 53 51 48 45 43 45 45 44 44 44 45 44 42 42
40 41 41 42 43 44 45 46 47 48 49 50 51 53 53 53 54 54 54 53 52 52 51 52 52 49 46 42 39 39 43 43 41 41 41 41 40 40
41 41 42 43 44 45 46 47 48 49 50 51 53 53 53 53 53 53 53 52 51 50 49 49 49 47 44 41 36 34 38 41 41 40 39 39 39 37
42 43 44 45 45 46 47 48 49 50 51 52 53 53 53 53 53 52 52 51 50 50 48 47 46 44 43 40 36 33 34 37 40 40 39 39 37 33
43 44 45 45 46 47 47 48 49 51 52 53 53 53 53 53 53 52 52 51 51 50 48 45 43 42 41 40 38 35 34 36 37 37 37 39 37 33
Wind_Direction
293 294 294 295 296 297 299 300 301 302 302 301 300 298 297 296 294 292 288 283 279 274 267 264 263 262 262 260 260 261 262 262 265 264 264 263 262 259
293 293 294 295 296 298 299 300 302 303 303 303 303 302 300 300 300 296 292 286 282 278 272 267 267 264 265 263 261 262 261 264 265 265 265 264 262 260
293 294 294 295 296 298 300 301 303 304 305 306 305 306 306 305 305 300 296 292 285 283 276 273 270 266 264 263 262 264 266 266 266 266 267 266 264 262
293 294 294 296 297 299 300 302 303 304 306 308 309 310 309 309 310 306 300 297 291 285 282 278 273 269 266 264 265 266 266 267 268 268 267 265 264 263
293 294 295 296 298 300 301 303 304 304 305 309 311 312 311 310 311 310 305 301 296 291 286 282 279 273 269 269 268 267 267 268 268 267 266 266 265 264
294 295 296 297 299 301 302 303 304 304 305 307 310 312 311 310 309 307 305 302 298 294 289 286 282 277 274 272 270 269 268 268 268 267 267 266 265 265
295 296 297 298 299 301 303 303 304 304 305 306 307 308 309 309 309 307 304 302 299 296 292 288 285 281 278 276 274 272 271 270 269 268 268 267 266 266
297 298 299 299 300 301 302 303 303 303 304 305 306 307 307 307 306 306 305 303 300 298 294 291 288 285 282 280 278 276 274 273 272 272 271 270 270 269
298 299 300 300 300 301 301 302 303 303 303 304 305 305 305 305 304 304 303 301 300 298 295 293 290 288 285 283 281 279 277 276 275 274 273 272 271 271
299 300 300 300 300 301 301 301 302 303 304 304 304 304 304 304 303 302 302 301 299 297 295 293 291 290 288 286 284 282 281 279 278 276 275 275 274 272
300 301 301 301 301 301 301 302 302 303 303 304 304 304 304 304 303 302 301 300 299 297 296 294 292 291 289 287 285 284 283 281 280 279 277 276 275 274
301 301 301 301 300 300 301 302 302 303 303 304 304 304 304 304 303 303 302 301 300 299 297 296 294 292 290 288 287 285 284 283 282 280 279 277 276 275
300 301 301 301 301 301 302 302 303 303 304 304 304 304 304 304 304 303 303 302 301 300 299 297 295 293 291 289 288 286 285 283 282 281 280 278 277 275
301 302 302 302 302 302 302 303 303 304 304 305 305 305 305 305 305 305 304 304 302 301 300 298 296 294 292 291 289 287 286 284 283 281 280 279 277 275
302 302 302 303 302 303 303 303 303 304 305 305 305 305 306 306 306 306 306 305 304 303 301 300 298 296 294 292 290 288 286 285 284 282 281 279 277 274
301 302 303 303 303 303 303 303 304 304 305 306 306 306 306 307 307 308 307 307 306 304 303 302 300 298 296 293 291 288 286 285 283 283 282 280 277 274
301 302 303 303 303 303 304 304 304 305 306 306 307 307 307 308 308 308 308 308 307 306 305 304 302 300 297 295 292 290 287 285 282 281 281 280 278 275
301 302 302 303 303 304 304 304 305 306 306 307 307 308 308 308 309 309 309 308 308 307 305 305 304 301 299 297 294 291 288 285 283 282 281 279 277 275
300 301 302 303 303 304 304 305 306 307 307 308 308 309 309 309 310 309 309 309 309 308 307 306 305 303 301 298 296 293 290 287 285 283 282 280 277 274
299 301 302 303 304 304 305 306 306 307 308 309 310 310 311 311 311 310 310 310 310 309 308 307 306 305 303 300 297 292 290 289 287 286 284 283 281 277
299 301 302 303 304 305 306 306 307 308 309 310 311 311 312 312 312 311 311 311 311 311 310 308 307 306 305 303 300 295 291 291 290 289 288 286 284 281
299 301 302 303 305 306 307 307 308 308 310 311 312 312 312 312 312 312 312 312 312 312 311 309 307 306 305 304 302 299 294 292 292 293 292 290 287 283
300 301 302 304 305 306 307 308 309 310 311 312 312 313 313 313 313 313 312 312 312 312 311 309 307 306 305 303 303 301 297 293 292 293 294 293 291 288
Height
5732 5729 5726 5722 5718 5714 5710 5706 5702 5698 5694 5687 5681 5675 5668 5664 5659 5655 5650 5647 5646 5646 5648 5650 5652 5655 5658 5661 5663 5666 5669 5671 5673 5675 5677 5679 5681 5683
5722 5719 5716 5712 5708 5704 5699 5694 5689 5685 5681 5676 5670 5664 5658 5652 5648 5643 5640 5637 5635 5635 5636 5638 5640 5643 5646 5648 5651 5653 5656 5659 5661 5663 5665 5667 5668 5670
5712 5709 5706 5702 5698 5693 5689 5684 5679 5674 5670 5665 5660 5654 5649 5644 5639 5635 5631 5628 5627 5626 5627 5628 5630 5632 5634 5636 5639 5641 5643 5646 5648 5650 5652 5654 5655 5657
5703 5699 5696 5692 5688 5684 5679 5674 5670 5665 5661 5656 5651 5646 5641 5637 5633 5629 5625 5623 5621 5620 5620 5620 5621 5622 5624 5626 5627 5629 5631 5633 5635 5637 5638 5640 5642 5643
5693 5690 5686 5682 5678 5674 5669 5665 5661 5656 5652 5648 5643 5639 5635 5631 5627 5623 5620 5617 5615 5614 5613 5613 5613 5613 5614 5615 5616 5618 5619 5620 5621 5622 5623 5624 5626 5627
5684 5680 5677 5673 5669 5665 5661 5656 5652 5648 5644 5640 5636 5632 5629 5625 5621 5618 5615 5612 5610 5608 5606 5605 5605 5604 5604 5605 5605 5606 5606 5607 5607 5608 5608 5609 5610 5611
5675 5671 5668 5664 5660 5656 5652 5648 5645 5641 5637 5633 5630 5626 5622 5618 5615 5612 5609 5606 5604 5602 5599 5598 5596 5596 5595 5594 5594 5593 5593 5593 5593 5594 5594 5594 5594 5595
5666 5663 5659 5656 5652 5648 5644 5641 5637 5633 5630 5626 5622 5619 5615 5612 5608 5605 5602 5599 5596 5594 5591 5589 5587 5586 5584 5583 5582 5581 5580 5579 5579 5578 5578 5578 5578 5578
5658 5655 5651 5647 5644 5640 5637 5633 5629 5625 5622 5619 5615 5611 5607 5604 5600 5597 5594 5591 5587 5585 5582 5579 5577 5575 5573 5571 5569 5567 5566 5564 5563 5562 5561 5560 5560 5560
5650 5647 5643 5640 5636 5633 5629 5625 5621 5618 5614 5610 5606 5602 5599 5595 5591 5588 5584 5581 5577 5574 5571 5568 5565 5562 5559 5556 5554 5551 5549 5548 5546 5544 5543 5542 5542 5541
5642 5639 5635 5632 5628 5625 5621 5617 5614 5610 5606 5601 5597 5593 5589 5585 5582 5578 5574 5570 5566 5563 5559 5556 5552 5548 5544 5541 5538 5535 5532 5530 5528 5526 5524 5523 5522 5521
5635 5631 5628 5624 5620 5616 5613 5609 5605 5601 5597 5593 5588 5584 5580 5575 5571 5567 5563 5558 5554 5550 5546 5542 5537 5533 5529 5525 5521 5518 5515 5512 5509 5507 5505 5504 5502 5502
5626 5623 5619 5616 5612 5608 5604 5600 5596 5592 5588 5583 5579 5574 5570 5565 5560 5555 5551 5546 5541 5536 5532 5527 5521 5517 5513 5509 5503 5500 5497 5494 5491 5488 5486 5485 5484 5483
5618 5615 5611 5607 5603 5599 5595 5591 5587 5583 5578 5573 5569 5564 5559 5554 5549 5543 5538 5532 5526 5521 5516 5511 5506 5501 5496 5491 5486 5481 5478 5475 5472 5470 5468 5467 5465 5464
5610 5606 5602 5598 5594 5590 5586 5582 5577 5573 5568 5563 5558 5553 5547 5542 5536 5530 5524 5518 5511 5505 5500 5494 5489 5484 5478 5474 5469 5463 5459 5455 5452 5451 5449 5448 5447 5447
5601 5597 5593 5589 5585 5581 5576 5572 5567 5562 5557 5552 5547 5541 5535 5529 5523 5516 5510 5503 5496 5488 5483 5477 5472 5466 5461 5456 5451 5446 5440 5438 5434 5432 5431 5430 5429 5428
5592 5588 5584 5580 5575 5571 5566 5561 5557 5552 5546 5541 5535 5529 5522 5516 5509 5502 5495 5488 5481 5473 5465 5459 5454 5449 5444 5439 5434 5429 5424 5420 5417 5414 5413 5413 5412 5410
5582 5578 5574 5569 5565 5560 5555 5550 5545 5540 5535 5529 5522 5516 5509 5502 5495 5487 5481 5473 5466 5458 5450 5442 5437 5432 5428 5423 5417 5413 5408 5403 5400 5398 5396 5396 5396 5393
5572 5568 5564 5559 5554 5549 5544 5539 5534 5528 5522 5516 5510 5503 5495 5488 5480 5473 5466 5458 5451 5443 5435 5427 5420 5415 5411 5408 5403 5395 5391 5387 5384 5382 5380 5379 5380 5379
5562 5557 5553 5548 5543 5538 5533 5527 5521 5515 5509 5503 5496 5489 5481 5474 5466 5458 5451 5443 5436 5429 5421 5412 5405 5399 5395 5392 5389 5383 5375 5372 5370 5368 5366 5364 5363 5363
5551 5546 5542 5537 5532 5526 5521 5515 5509 5503 5496 5489 5482 5475 5467 5460 5452 5444 5436 5429 5422 5415 5407 5399 5391 5385 5380 5377 5375 5371 5364 5358 5355 5353 5352 5349 5348 5348
5539 5535 5530 5525 5520 5514 5509 5502 5496 5489 5483 5476 5468 5461 5453 5445 5438 5430 5423 5415 5408 5401 5394 5387 5379 5373 5367 5363 5361 5359 5354 5348 5342 5340 5337 5335 5333 5334
5528 5523 5518 5513 5508 5502 5496 5490 5483 5477 5470 5462 5455 5447 5439 5431 5424 5416 5409 5401 5394 5387 5380 5374 5368 5361 5355 5351 5348 5345 5342 5337 5332 5329 5326 5321 5319 5319